Tracking 31027 objects as of 19-Jul-2025
HD Live streaming from Space Station
objects crossing your sky now

TELECOM 1A

Track TELECOM 1A now!
TELECOM 1A is classified as:


NORAD ID: 15159
Int'l Code: 1984-081B
Perigee: 36,185.9 km
Apogee: 36,469.5 km
Inclination: 13.1 °
Period: 1,463.5 minutes
Semi major axis: 42698 km
RCS: 10.2909 m2 (large)
Launch date: August 4, 1984
Source: France (FR)
Launch site: FRENCH GUIANA (FRGUI)
Your satellite tracking list
STARLINK-3957
Track 1 satellite(s)




NASA's NSSDC Master Catalog

Two Line Element Set (TLE):
1 15159U 84081B   25199.71678772 -.00000180  00000-0  00000-0 0  9993
2 15159  13.1252 336.1804 0033210  50.0050 295.7993  0.98396647115329
Source of the keplerian elements: AFSPC